sat.trackr.live / text

‹ back to catalog

STARLINK-11574 [DTC]

NORAD 63010 · 2025-032F

PAYLOAD ACTIVE UNKNOWN

§ Identity

Operator
Country
US
Launch date
2025-02-15
Launch site
AFETR
Launch vehicle
Mass (kg)
RCS (m²)

Purposes: comms

External: N2YO · Heavens-Above · Gunter

§ Orbital elements

Epoch: 2026-09-21T22:01:37.322976Z

Period
91.66 min
Inclination
43.0001°
Eccentricity
0.0004085
Mean motion
15.71001678 rev/d
Perigee alt
353.3 km
Apogee alt
358.8 km
Semi-major
6,734.2 km
B*
1.5498e-3
RAAN
92.7022°
Arg perigee
267.4311°
Mean anomaly
92.6089°
Rev number
9,307

§ Raw data

STARLINK-11574 [DTC]1 63010U 25032F   26264.91779309  .00204821  00000+0  15498-2 0  99922 63010  43.0001  92.7022 0004085 267.4311  92.6089 15.71001678 93072

JSON: /api/v1/satellites/63010 · /tle

For live sub-satellite position, see the globe view (requires WebGL).

§ Visibility from observer

Set your observer location to see the next 7 days of passes ≥ 10°. The values pass through the URL so the page stays shareable.

No JS? Fill the form by hand. The geolocation button needs JavaScript.